Previsão horária em Almáskeresztúr

Hoje, 21 Janeiro, Quinta-feira

Tempo Temperatura Precipitação Vento Pressão Humidade
00:00 +2°C° 0 mm 6 m/s 745 mmHg 80%
01:00 +3°C° 0 mm 5 m/s 745 mmHg 79%
02:00 +3°C° 0 mm 5 m/s 744 mmHg 79%
03:00 +3°C° 0 mm 5 m/s 744 mmHg 79%
04:00 +3°C° 0 mm 5 m/s 744 mmHg 78%
05:00 +3°C° 0 mm 5 m/s 744 mmHg 79%
06:00 +3°C° 0 mm 5 m/s 744 mmHg 79%
07:00 +3°C° 0 mm 5 m/s 743 mmHg 79%
08:00 +5°C° 0 mm 5 m/s 744 mmHg 76%
09:00 +5°C° 0 mm 6 m/s 744 mmHg 73%
10:00 +7°C° 0 mm 6 m/s 744 mmHg 70%
11:00 +8°C° 0 mm 6 m/s 744 mmHg 67%
12:00 +10°C° 0 mm 7 m/s 744 mmHg 63%
13:00 +11°C° 0 mm 8 m/s 743 mmHg 60%
14:00 +10°C° 0 mm 7 m/s 743 mmHg 62%
15:00 +10°C° 0 mm 6 m/s 743 mmHg 65%
16:00 +9°C° 0 mm 5 m/s 743 mmHg 68%
17:00 +8°C° 0 mm 5 m/s 743 mmHg 71%
18:00 +7°C° 0 mm 5 m/s 743 mmHg 74%
19:00 +6°C° 0 mm 4 m/s 743 mmHg 78%
20:00 +7°C° 0 mm 5 m/s 743 mmHg 77%
21:00 +7°C° 0 mm 5 m/s 743 mmHg 76%
22:00 +7°C° 0 mm 5 m/s 743 mmHg 75%
23:00 +6°C° 0 mm 5 m/s 742 mmHg 76%

Amanhã, 22 Janeiro, Sexta-feira

Tempo Temperatura Precipitação Vento Pressão Humidade
00:00 +6°C° 0 mm 5 m/s 742 mmHg 77%
01:00 +6°C° 0 mm 5 m/s 742 mmHg 78%
02:00 +6°C° 0 mm 5 m/s 741 mmHg 79%
03:00 +5°C° 0 mm 5 m/s 741 mmHg 80%
04:00 +5°C° 0 mm 4 m/s 740 mmHg 81%
05:00 +5°C° 0 mm 4 m/s 740 mmHg 81%
06:00 +5°C° 0 mm 4 m/s 740 mmHg 81%
07:00 +5°C° 0 mm 5 m/s 740 mmHg 81%
08:00 +6°C° 0 mm 5 m/s 739 mmHg 78%
09:00 +7°C° 0 mm 5 m/s 739 mmHg 75%
10:00 +8°C° 0 mm 5 m/s 739 mmHg 72%
11:00 +9°C° 0 mm 5 m/s 738 mmHg 71%
12:00 +10°C° 0 mm 6 m/s 738 mmHg 70%
13:00 +11°C° 0 mm 6 m/s 738 mmHg 68%
14:00 +10°C° 0.2 mm 6 m/s 737 mmHg 72%
15:00 +10°C° 0.2 mm 6 m/s 737 mmHg 76%
16:00 +9°C° 0.2 mm 5 m/s 736 mmHg 79%
17:00 +9°C° 0 mm 5 m/s 736 mmHg 81%
18:00 +8°C° 0 mm 5 m/s 736 mmHg 83%
19:00 +7°C° 0 mm 5 m/s 736 mmHg 84%
20:00 +7°C° 0 mm 5 m/s 735 mmHg 84%
21:00 +7°C° 0 mm 5 m/s 735 mmHg 83%
22:00 +7°C° 0 mm 5 m/s 735 mmHg 83%
23:00 +7°C° 0 mm 5 m/s 734 mmHg 82%

Depois de amanhã, 23 Janeiro, Sábado

Tempo Temperatura Precipitação Vento Pressão Humidade
00:00 +7°C° 0 mm 5 m/s 734 mmHg 81%
01:00 +7°C° 0 mm 5 m/s 733 mmHg 80%
02:00 +7°C° 0 mm 5 m/s 733 mmHg 79%
03:00 +8°C° 0 mm 6 m/s 732 mmHg 78%
04:00 +8°C° 0 mm 6 m/s 732 mmHg 76%
05:00 +8°C° 0 mm 6 m/s 732 mmHg 76%
06:00 +8°C° 0 mm 6 m/s 732 mmHg 76%
07:00 +8°C° 0 mm 6 m/s 731 mmHg 76%
08:00 +8°C° 0 mm 6 m/s 731 mmHg 74%
09:00 +8°C° 0 mm 6 m/s 731 mmHg 72%
10:00 +9°C° 0 mm 7 m/s 731 mmHg 71%
11:00 +9°C° 0.1 mm 6 m/s 731 mmHg 70%
12:00 +9°C° 0.1 mm 6 m/s 731 mmHg 70%
13:00 +10°C° 0.1 mm 5 m/s 731 mmHg 70%
14:00 +10°C° 0.4 mm 4 m/s 731 mmHg 72%
15:00 +10°C° 0.4 mm 3 m/s 731 mmHg 74%
16:00 +9°C° 0.4 mm 2 m/s 731 mmHg 76%
17:00 +8°C° 0.1 mm 2 m/s 731 mmHg 77%
18:00 +7°C° 0.1 mm 2 m/s 731 mmHg 78%
19:00 +6°C° 0.1 mm 2 m/s 732 mmHg 79%
20:00 +6°C° 0 mm 2 m/s 732 mmHg 82%
21:00 +5°C° 0 mm 2 m/s 731 mmHg 84%
22:00 +4°C° 0 mm 2 m/s 731 mmHg 87%
23:00 +4°C° 0.3 mm 2 m/s 731 mmHg 88%

24 Janeiro, Domingo

Tempo Temperatura Precipitação Vento Pressão Humidade
00:00 +4°C° 0.3 mm 2 m/s 731 mmHg 88%
01:00 +4°C° 0.3 mm 2 m/s 731 mmHg 89%
02:00 +4°C° 0.1 mm 2 m/s 731 mmHg 89%
03:00 +5°C° 0.1 mm 1 m/s 731 mmHg 90%
04:00 +5°C° 0.1 mm 1 m/s 731 mmHg 90%
05:00 +5°C° 0.1 mm 1 m/s 731 mmHg 90%
06:00 +5°C° 0.1 mm 1 m/s 731 mmHg 90%
07:00 +5°C° 0.1 mm 1 m/s 732 mmHg 91%
08:00 +4°C° 0.1 mm 2 m/s 732 mmHg 90%
09:00 +4°C° 0.1 mm 2 m/s 733 mmHg 90%
10:00 +3°C° 0.1 mm 3 m/s 733 mmHg 89%
11:00 +3°C° 0.1 mm 3 m/s 733 mmHg 88%
12:00 +3°C° 0.1 mm 3 m/s 733 mmHg 86%
13:00 +3°C° 0.1 mm 3 m/s 733 mmHg 85%
14:00 +3°C° 0 mm 3 m/s 734 mmHg 82%
15:00 +2°C° 0 mm 3 m/s 734 mmHg 79%
16:00 +3°C° 0 mm 2 m/s 734 mmHg 77%
17:00 +3°C° 0 mm 2 m/s 734 mmHg 78%
18:00 +4°C° 0 mm 1 m/s 735 mmHg 80%
19:00 +2°C° 0 mm 0 m/s 735 mmHg 81%
20:00 +3°C° 0 mm 1 m/s 735 mmHg 81%
21:00 +2°C° 0 mm 2 m/s 734 mmHg 80%
22:00 +1°C° 0 mm 3 m/s 734 mmHg 80%
23:00 +2°C° 0 mm 2 m/s 734 mmHg 80%

25 Janeiro, Segunda-feira

Tempo Temperatura Precipitação Vento Pressão Humidade
00:00 +2°C° 0 mm 2 m/s 734 mmHg 80%
01:00 +3°C° 0 mm 1 m/s 735 mmHg 79%
02:00 +2°C° 0 mm 2 m/s 734 mmHg 79%
03:00 0°C° 0 mm 3 m/s 734 mmHg 78%
04:00 -1°C° 0 mm 4 m/s 734 mmHg 77%
05:00 -1°C° 0 mm 4 m/s 734 mmHg 78%
06:00 -1°C° 0 mm 4 m/s 735 mmHg 78%
07:00 -2°C° 0 mm 4 m/s 735 mmHg 79%
08:00 -1°C° 0 mm 5 m/s 736 mmHg 75%
09:00 -2°C° 0 mm 6 m/s 736 mmHg 71%
10:00 -1°C° 0 mm 7 m/s 737 mmHg 68%
11:00 0°C° 0 mm 7 m/s 737 mmHg 62%
12:00 0°C° 0 mm 7 m/s 737 mmHg 57%
13:00 +2°C° 0 mm 7 m/s 737 mmHg 52%
14:00 +2°C° 0 mm 6 m/s 738 mmHg 53%
15:00 +1°C° 0 mm 5 m/s 738 mmHg 55%
16:00 +1°C° 0 mm 5 m/s 738 mmHg 56%
17:00 0°C° 0 mm 4 m/s 739 mmHg 60%
18:00 0°C° 0 mm 4 m/s 739 mmHg 64%
19:00 -1°C° 0 mm 4 m/s 740 mmHg 67%
20:00 -1°C° 0 mm 4 m/s 740 mmHg 69%
21:00 -1°C° 0 mm 3 m/s 741 mmHg 70%
22:00 -1°C° 0 mm 3 m/s 741 mmHg 71%
23:00 -1°C° 0 mm 3 m/s 742 mmHg 73%

26 Janeiro, Terça-feira

Tempo Temperatura Precipitação Vento Pressão Humidade
00:00 -1°C° 0 mm 3 m/s 742 mmHg 74%
01:00 -2°C° 0 mm 3 m/s 742 mmHg 76%
02:00 -2°C° 0 mm 2 m/s 742 mmHg 76%
03:00 -2°C° 0 mm 2 m/s 742 mmHg 76%
04:00 -2°C° 0 mm 2 m/s 742 mmHg 77%
05:00 -2°C° 0 mm 2 m/s 743 mmHg 77%
06:00 -2°C° 0 mm 2 m/s 743 mmHg 77%
07:00 -2°C° 0 mm 2 m/s 743 mmHg 76%
08:00 -1°C° 0 mm 3 m/s 744 mmHg 73%
09:00 0°C° 0 mm 3 m/s 744 mmHg 69%
10:00 0°C° 0 mm 4 m/s 745 mmHg 65%
11:00 +1°C° 0 mm 4 m/s 745 mmHg 61%
12:00 +1°C° 0 mm 4 m/s 745 mmHg 57%
13:00 +3°C° 0 mm 4 m/s 745 mmHg 53%
14:00 +2°C° 0 mm 3 m/s 745 mmHg 56%
15:00 +3°C° 0 mm 2 m/s 745 mmHg 59%
16:00 +2°C° 0 mm 2 m/s 746 mmHg 62%
17:00 +2°C° 0 mm 1 m/s 745 mmHg 65%
18:00 +2°C° 0 mm 1 m/s 745 mmHg 68%
19:00 +1°C° 0 mm 1 m/s 745 mmHg 71%
20:00 -1°C° 0 mm 2 m/s 745 mmHg 71%
21:00 -1°C° 0 mm 2 m/s 745 mmHg 72%
22:00 -2°C° 0 mm 2 m/s 745 mmHg 73%
23:00 -2°C° 0 mm 2 m/s 744 mmHg 73%
Mostrar mais

Necessitamos do seu Consentimento

A Meteoprog e os seus Fornecedores de Serviços podem armazenar e aceder a dados pessoais como cookies, identificadores do dispositivo ou outras tecnologias semelhantes existentes no seu dispositivo e processar estes dados para personalizar conteúdos e anúncios, assim como funcionalidades nas redes sociais e análise de tráfego.

  • Armazenar e/ou aceder a informações no seu dispositivo

    Os cookies, identificadores do dispositivo ou outras informações podem ser armazenados ou acedidos no seu dispositivo, para os fins acima indicados.

  • Anúncios e conteúdos personalizados, medição de anúncios e conteúdos, dados sobre o público-alvo e desenvolvimento de produtos

    Os anúncios e os conteúdos podem ser personalizados com base num perfil. Podem ser adicionados dados adicionais para uma maior personalização dos anúncios e dos conteúdos. A eficácia dos anúncios e dos conteúdos pode ser medida. Podem ser obtidas informações sobre o público que visualizou os anúncios e os conteúdos. Estes dados podem ser usados para desenvolver ou melhorar sistemas, softwares ou a experiência do utilizador.

Ao clicar em "Eu concordo”, permitirá o uso de cookies, identificadores do dispositivo e web beacons mencionados ou outras tecnologias semelhantes. As configurações do navegador do seu dispositivo podem ser alteradas.

Para certos fins, podem ser invocados interesses legítimos ao invés de consentimento. Pode ler mais informação sobre este assunto na nossa Política de Privacidade e Cookies.